TimeEDT,TemperatureF,Dew PointF,Humidity,Sea Level PressureIn,VisibilityMPH,Wind Direction,Wind SpeedMPH,Gust SpeedMPH,PrecipitationIn,Events,Conditions,WindDirDegrees,DateUTC
12:54 AM,39.0,25.0,57,30.05,10.0,SW,4.6,-,N/A,,Clear,230,2013-03-23 04:54:00
1:54 AM,39.9,27.0,60,30.05,10.0,SW,4.6,-,N/A,,Clear,220,2013-03-23 05:54:00
2:54 AM,41.0,28.9,62,30.04,10.0,WSW,3.5,-,N/A,,Clear,240,2013-03-23 06:54:00
3:54 AM,39.9,28.9,65,30.03,10.0,SW,3.5,-,N/A,,Mostly Cloudy,230,2013-03-23 07:54:00
4:54 AM,41.0,30.0,65,30.03,10.0,Calm,Calm,-,N/A,,Overcast,0,2013-03-23 08:54:00
5:54 AM,37.9,28.9,70,30.02,10.0,Calm,Calm,-,N/A,,Partly Cloudy,0,2013-03-23 09:54:00
6:54 AM,37.0,28.9,73,30.04,10.0,Calm,Calm,-,N/A,,Mostly Cloudy,0,2013-03-23 10:54:00
7:54 AM,41.0,30.0,65,30.05,10.0,WSW,3.5,-,N/A,,Mostly Cloudy,240,2013-03-23 11:54:00
9:54 AM,50.0,28.9,44,30.04,10.0,NNW,4.6,-,N/A,,Clear,340,2013-03-23 13:54:00
10:54 AM,52.0,27.0,38,30.04,10.0,WNW,3.5,-,N/A,,Clear,300,2013-03-23 14:54:00
11:54 AM,55.0,28.0,35,30.04,10.0,North,3.5,-,N/A,,Partly Cloudy,350,2013-03-23 15:54:00
12:54 PM,55.9,28.0,34,30.05,10.0,West,4.6,-,N/A,,Overcast,270,2013-03-23 16:54:00
2:54 PM,55.9,28.9,36,30.00,10.0,West,3.5,-,N/A,,Overcast,280,2013-03-23 18:54:00
3:54 PM,57.0,28.9,34,29.98,10.0,Calm,Calm,-,N/A,,Overcast,0,2013-03-23 19:54:00
4:54 PM,57.0,28.9,34,29.95,10.0,WNW,4.6,-,N/A,,Overcast,290,2013-03-23 20:54:00
5:54 PM,57.0,30.0,36,29.94,10.0,North,4.6,-,N/A,,Overcast,350,2013-03-23 21:54:00
6:54 PM,54.0,32.0,43,29.94,10.0,North,3.5,-,N/A,,Clear,350,2013-03-23 22:54:00
7:54 PM,46.9,33.1,59,29.95,10.0,Calm,Calm,-,N/A,,Clear,0,2013-03-23 23:54:00
8:54 PM,43.0,33.1,68,29.99,10.0,Calm,Calm,-,N/A,,Clear,0,2013-03-24 00:54:00
9:54 PM,42.1,33.1,70,30.01,10.0,South,4.6,-,N/A,,Clear,180,2013-03-24 01:54:00
10:54 PM,39.9,33.1,77,29.99,10.0,Calm,Calm,-,N/A,,Clear,0,2013-03-24 02:54:00
11:54 PM,37.9,32.0,79,29.97,10.0,Calm,Calm,-,N/A,,Clear,0,2013-03-24 03:54:00